Location: Cedar Falls
(42.5280°N, 92.4450°W)
Time: 00:35:53
(UTC-05:00)

NOSS 3-1 (C) - Visible Passes

Search period start: 23 July 2014 00:00
Search period end: 02 August 2014 00:00
Orbit: 900 x 1310 km, 63.4° (Epoch: 17 July)

Date Brightness Start Highest point End Pass type
(mag) Time Alt. Az. Time Alt. Az. Time Alt. Az.
23 Jul 6.7 00:35:01 10° NW 00:38:18 14° N 00:41:43 10° NNE visible
23 Jul 6.6 02:28:14 10° NNW 02:32:31 16° NNE 02:37:01 10° NE visible
23 Jul 5.4 04:18:38 10° NNW 04:25:33 42° NE 04:32:58 10° ESE visible
23 Jul 4.9 21:53:26 10° WSW 21:59:18 44° NW 22:05:43 10° NNE visible
23 Jul 6.5 23:48:18 10° NW 23:52:12 16° NNW 23:56:17 10° NNE visible
24 Jul 6.7 01:42:53 10° NNW 01:46:24 14° N 01:50:03 10° NE visible
24 Jul 5.8 03:33:35 10° NNW 03:39:55 31° NE 03:46:40 10° E visible
24 Jul 4.1 21:07:49 10° SW 21:13:53 66° NW 21:20:33 10° NNE visible
24 Jul 6.3 23:01:38 10° WNW 23:06:12 20° NNW 23:11:05 10° NNE visible
25 Jul 6.8 00:57:11 10° NNW 01:00:13 13° N 01:03:21 10° NNE visible
25 Jul 6.2 02:48:31 10° NNW 02:54:07 23° NNE 03:00:04 10° E visible
25 Jul 4.4 04:38:54 10° NNW 04:46:20 71° NE 04:54:20 10° SE visible
25 Jul 5.9 22:15:10 10° W 22:20:22 26° NNW 22:25:58 10° NNE visible
26 Jul 6.7 00:10:58 10° NNW 00:14:01 13° N 00:17:12 10° NNE visible
26 Jul 6.4 02:03:25 10° NNW 02:08:11 18° NNE 02:13:12 10° ENE visible
26 Jul 4.9 03:53:46 10° NNW 04:00:55 50° NE 04:08:37 10° ESE visible
26 Jul 5.3 21:29:01 10° WSW 21:34:41 36° NW 21:40:52 10° NNE visible
26 Jul 6.6 23:24:21 10° NW 23:27:52 15° NNW 23:31:34 10° NNE visible
27 Jul 6.6 01:18:12 10° NNW 01:22:07 15° NNE 01:26:12 10° NE visible
27 Jul 5.4 03:08:41 10° NNW 03:15:22 36° NE 03:22:31 10° ESE visible
27 Jul 4.0 04:59:22 10° NW 05:06:48 66° WSW 05:14:45 10° SSE visible
27 Jul 6.4 22:37:37 10° WNW 22:41:49 17° NNW 22:46:16 10° NNE visible
28 Jul 6.6 00:32:43 10° NNW 00:35:57 13° N 00:39:19 10° NE visible
28 Jul 5.9 02:23:38 10° NNW 02:29:39 27° NE 02:36:04 10° E visible
28 Jul 4.1 04:14:05 10° NW 04:21:35 86° NE 04:29:39 10° SE visible
28 Jul 6.1 21:51:02 10° W 21:55:54 22° NNW 22:01:06 10° NNE visible
28 Jul 6.6 23:46:47 10° NNW 23:49:46 13° N 23:52:51 10° NNE visible
29 Jul 6.2 01:38:34 10° NNW 01:43:48 21° NNE 01:49:20 10° ENE visible
29 Jul 4.5 03:28:55 10° NNW 03:36:15 61° NE 03:44:09 10° SE visible
29 Jul 4.6 05:20:17 10° NW 05:26:58 35° WSW 05:34:01 10° S visible
29 Jul 5.7 21:04:42 10° W 21:10:07 30° NW 21:16:00 10° NNE visible
29 Jul 6.5 23:00:21 10° NW 23:03:35 14° N 23:06:57 10° NNE visible
30 Jul 6.4 00:53:25 10° NNW 00:57:48 17° NNE 01:02:24 10° ENE visible
30 Jul 5.0 02:43:49 10° NNW 02:50:46 43° NE 02:58:15 10° ESE visible
30 Jul 4.1 04:34:41 10° NW 04:41:57 53° WSW 04:49:41 10° S visible
30 Jul 6.4 22:13:39 10° NW 22:17:28 16° NNW 22:21:29 10° NNE visible
31 Jul 6.5 00:08:06 10° NNW 00:11:41 14° NNE 00:15:25 10° NE visible
31 Jul 5.5 01:58:45 10° NNW 02:05:09 32° NE 02:12:00 10° E visible
31 Jul 3.9 03:49:18 10° NW 03:56:48 78° WSW 04:04:51 10° SSE visible
31 Jul 6.2 21:26:58 10° WNW 21:31:28 19° NNW 21:36:16 10° NNE visible
31 Jul 6.5 23:22:27 10° NNW 23:25:30 13° N 23:28:41 10° NNE visible
01 Aug 5.9 01:13:41 10° NNW 01:19:22 24° NNE 01:25:24 10° E visible
01 Aug 4.1 03:04:05 10° NNW 03:11:32 74° NE 03:19:34 10° SE visible
01 Aug 4.8 04:55:52 10° WNW 05:02:01 27° WSW 05:08:27 10° SSW visible
01 Aug 6.4 22:36:17 10° NNW 22:39:19 13° N 22:42:27 10° NNE visible
